www.pogodaiklimat.ru

Погода и климат >> Архив погоды >> Кувейт >> Абраке Аль Хабари


ПОГОДА на Абраке Аль Хабари

  • Прогноз погоды на Абраке Аль Хабари
  • Монитор погоды на Абраке Аль Хабари

АРХИВ ПОГОДЫ на Абраке Аль Хабари

Время (UTC), дата Ветер
(напр.,м/с)
 
Видим.   Явления Облачность Т
(С)
Тd
(С)
f
(%)
Тe
(С)
Тes
(С)
Комфортность P
(гПа)
Po
(гПа)
Тmin
(С)
Tmax
(С)
R
(мм)
R24
(мм)
S
(см)
03 9.06 З 4-5
{6}
11 км дым н/о +32.5 +3.5 16 +30 +30 жарко 1004.2 977.9
06 9.06 З 4-5
{6}
16 км н/о +40.5 +3.7 10 +37 +37 очень
жарко
1003.8 978.2
09 9.06 СЗ 5-10
{10}
18 км н/о +45.9 +0.7 6 +42 +42 опасность
перегрева
1002.1 977.0
12 9.06 З 2-5
{11}
18 км н/о +47.4 -1.9 5 +43 +43 опасность
перегрева
1000.2 975.2
15 9.06 СЗ 6-7
{13}
19 км н/о +45.0 -1.9 6 +41 +41 опасность
перегрева
1000.0 974.9
18 9.06 С 4-5
{13}
17 км н/о +38.5 +1.0 10 +35 +35 очень
жарко
1001.5 975.8
21 9.06 С 4-5
{5}
14 км н/о +34.6 +3.6 14 +32 +32 жарко 1001.4 975.4 +31.1 +47.9
00 10.06 С 2-2
{5}
14 км н/о +31.9 +4.9 18 +30 +30 жарко 1000.9 974.7
03 10.06 ЮВ 2-4
{4}
12 км дымка н/о +31.6 +4.2 18 +29 +29 жарко 1001.9 975.6
06 10.06 СЗ 2-3
{12}
14 км н/о +41.7 +4.5 10 +39 +39 очень
жарко
1001.8 976.4
09 10.06 С 4-8
{8}
17 км н/о +46.4 +2.5 7 +43 +43 опасность
перегрева
1000.6 975.6
12 10.06 С 5-10
{14}
14 км н/о +46.9 -0.2 6 +43 +43 опасность
перегрева
999.1 974.1
15 10.06 С 8-10
{13}
18 км н/о +45.5 -0.3 6 +42 +42 опасность
перегрева
999.0 973.9
18 10.06 СВ 4-4
{13}
16 км н/о +38.4 +1.0 10 +35 +35 очень
жарко
1000.8 975.1
21 10.06 С 3-3
{5}
16 км н/о +35.5 +3.5 14 +33 +33 жарко 1000.7 974.8 +30.1 +47.8
00 11.06 З 2-4
{5}
15 км н/о +33.3 +4.5 16 +31 +31 жарко 1000.8 974.7
03 11.06 З 4-6
{6}
12 км н/о +33.6 +5.2 17 +31 +31 жарко 1002.2 976.1
06 11.06 СЗ 7-10
{11}
16 км н/о +42.9 +2.1 8 +39 +39 очень
жарко
1002.4 977.0
09 11.06 С 6-10
{13}
15 км н/о +46.7 +4.0 8 +44 +44 опасность
перегрева
1001.4 976.4
12 11.06 СЗ 9-13
{13}
16 км н/о +47.5 +2.2 7 +44 +44 опасность
перегрева
999.7 974.8
15 11.06 СЗ 8-10
{14}
17 км н/о +45.1 +2.1 7 +42 +42 опасность
перегрева
1000.0 974.9
18 11.06 СЗ 5-6
{14}
16 км н/о +39.0 +2.2 10 +35 +35 очень
жарко
1002.1 976.4
21 11.06 СЗ 6-8
{8}
16 км н/о +36.3 +4.0 13 +33 +33 жарко 1002.2 976.3 +31.8 +48.3
00 12.06 С 8-10
{10}
16 км н/о +34.4 +7.9 20 +33 +33 жарко 1001.9 975.9
03 12.06 СЗ 7-10
{11}
15 км н/о +32.5 +5.1 18 +30 +30 жарко 1003.4 977.2
06 12.06 С 10-13
{14}
18 км н/о +38.9 +0.2 9 +35 +35 очень
жарко
1003.7 978.0
09 12.06 СЗ 9-14
{15}
15 км н/о +43.6 +0.9 7 +40 +40 очень
жарко
1002.6 977.3
12 12.06 С 9-13
{16}
17 км н/о +44.9 -1.8 6 +41 +41 опасность
перегрева
1000.9 975.7
15 12.06 С 9-12
{14}
18 км н/о +42.3 -0.1 7 +38 +38 очень
жарко
1001.1 975.7
18 12.06 С 6-7
{14}
18 км н/о +36.6 +0.4 10 +33 +33 жарко 1003.5 977.6
21 12.06 С 7-9
{9}
17 км н/о +33.6 +0.4 12 +30 +30 жарко 1003.6 977.4 +31.5 +45.7
00 13.06 СЗ 7-9
{9}
18 км н/о +31.2 +0.7 14 +28 +28 жарко 1002.9 976.6
03 13.06 СЗ 6-7
{9}
14 км н/о +30.5 +2.5 17 +28 +28 жарко 1003.5 977.1
06 13.06 С 10-14
{14}
18 км н/о +39.0 +1.4 10 +35 +35 очень
жарко
1003.7 978.0
09 13.06 С 10-14
{15}
17 км н/о +42.3 +0.6 8 +39 +39 очень
жарко
1002.5 977.1
12 13.06 С 7-11
{15}
17 км н/о +43.3 +0.9 7 +40 +40 очень
жарко
1000.8 975.5
15 13.06 С 7-9
{15}
18 км н/о +41.3 +0.9 8 +38 +38 очень
жарко
1000.8 975.4
18 13.06 С 5-6
{15}
19 км н/о +35.8 +1.2 11 +32 +32 жарко 1002.4 976.5
21 13.06 С 4-4
{6}
9000 м дым н/о +32.7 +1.4 14 +30 +30 жарко 1001.8 975.6 +29.4 +43.8
00 14.06 С 2-2
{6}
12 км дым н/о +30.0 +1.9 17 +28 +28 жарко 1001.6 975.2
03 14.06 СЗ 3-4
{6}
13 км дым н/о +29.9 +1.8 16 +27 +27 жарко 1001.8 975.4
06 14.06 СВ 6-7
{8}
18 км н/о +39.9 -1.4 8 +36 +36 очень
жарко
1001.9 976.3
09 14.06 В 2-5
{11}
16 км н/о +43.7 -2.6 6 +40 +40 очень
жарко
1001.0 975.7
12 14.06 СВ 3-5
{11}
15 км н/о +45.0 -1.7 6 +41 +41 опасность
перегрева
999.1 974.0
15 14.06 СВ 1-3
{6}
14 км дым н/о +43.7 -1.5 6 +40 +40 очень
жарко
998.7 973.5
18 14.06 В 4-5
{8}
13 км н/о +36.7 +2.0 11 +33 +33 жарко 1000.8 975.0
21 14.06 Ю 4-4
{6}
14 км н/о +32.1 +0.6 13 +29 +29 жарко 1000.8 974.6 +28.6 +45.9
00 15.06 ЮЗ 4-5
{6}
14 км н/о +30.6 +0.2 14 +28 +28 жарко 1000.1 973.8
03 15.06 ЮЗ 5-6
{7}
13 км дым н/о +30.9 -0.5 13 +28 +28 жарко 1000.9 974.6
06 15.06 ЮЗ 4-5
{7}
17 км н/о +40.6 -0.4 8 +37 +37 очень
жарко
1001.3 975.8
09 15.06 ЮЗ 2-6
{8}
15 км н/о +44.5 -0.4 6 +41 +41 опасность
перегрева
1000.0 974.8
12 15.06 З 4-8
{9}
16 км н/о +46.5 -1.9 5 +42 +42 опасность
перегрева
998.3 973.3
15 15.06 З 4-6
{9}
18 км н/о +45.1 -2.1 5 +41 +41 опасность
перегрева
998.3 973.2
18 15.06 СЗ 3-4
{9}
19 км н/о +38.9 -2.5 7 +35 +35 очень
жарко
1000.1 974.5
21 15.06 Ю 7-8
{8}
16 км н/о +34.7 +0.3 11 +31 +31 жарко 1000.4 974.4 +29.0 +47.1
00 16.06 ЮЗ 6-7
{8}
12 км н/о +33.0 -0.3 12 +30 +30 жарко 999.6 973.5

 

Местоположение метеостанции Абраке Аль Хабари (Кувейт): широта 29.30 долгота 47.00 высота над уровнем моря 237 м.

В архиве по умолчанию представлена погода на Абраке Аль Хабари за последнюю неделю. Архивные данные за месяц целиком и за предыдущие месяцы, начиная с января 2011 года, Вы можете получить, выбрав интересующий диапазон дат из раскрывающегося списка и нажав кнопку "Ввод!".


*Определитесь, кто Вы:
робот инопланетянин человек

Внимание! Время в таблицах - всемирное. Для получения местного времени необходимо прибавить поправку, которая равна 3 ч.

Смотрите также архив погоды в соседних городах и на ближайших метеорологических станциях:

Погода на Аль-Салми (Кувейт) (38 км)
Погода в Минагише (Кувейт) (57 км)
Погода в Эль-Джахра (Кувейт) (65 км)
Погода на Метеостанции Jal Aliyah (Кувейт) (66 км)
Погода на Метеостанции Mintribah (Кувейт) (68 км)
Погода в Сулайбии (Кувейт) (70 км)
Погода на Экспериментальной ферме (Кувейт) (91 км)
Погода в Эль-Кувейте (Кувейт) (95 км)
Погода на Метеостанции Sabriyah (Кувейт) (96 км)
Погода в Кувейт Сити (Кувейт) (102 км)

Пояснения к столбцам:

Ветер - указаны скорость ветра в м/с - средняя за 10 мин, порывы в срок и между сроками (в фигурных скобках) и направление, откуда дует ветер: С - северный, СВ - северо-восточный, В - восточный, ЮВ - юго-восточный, Ю - южный, ЮЗ - юго-западный, З - западный, СЗ - северо-западный.
Видимость - горизонтальная дальность видимости в метрах или километрах. При видимости от 1 до 10 км при отсутствии осадков обычно наблюдается дымка, при ухудшении видимости до 1 км и менее - туман. В сухую погоду видимость может ухудшаться дымом, пылью или мглою.
Явления - указаны атмосферные явления, наблюдавшиеся в срок или в последний час перед сроком; фигурными скобками обозначены явления, наблюдавшиеся между сроками (за 1-3 часа до срока); квадратными скобками обозначены град или гололедные отложения с указанием их диаметра в мм.
Облачность - указаны через наклонную черту общая и нижняя облачность в баллах и высота нижней границы облаков в метрах; квадратными скобками обозначены формы облаков: Ci - перистые, Cs - перисто-слоистые, Cc - перисто-кучевые, Ac - высококучевые, As - высокослоистые, Sc - слоисто-кучевые, Ns - слоисто-дождевые, Cu - кучевые, Cb - кучево-дождевые. Подробнее классификацию облаков см. в Атласе облаков (PDF).
T - Температура воздуха - температура, измеренная на высоте 2 м над землей.
Td - Температура точки росы - температура, при понижении до которой содержащийся в воздухе водяной пар достигнет насыщения.
f - Относительная влажность воздуха - влажноcть воздуха, измеренная на высоте 2 м над землей.
Te - Эффективная температура - температура, которую ощущает одетый по сезону человек в тени. Характеристика душности погоды. При расчете учитывается влияние влажности воздуха и скорости ветра на теплоощущения человека.
Tes - Эффективная температура на солнце - температура, которую ощущает человек, с поправкой на солнечный нагрев. Характеристика знойности погоды. Зависит от высоты солнца над горизонтом, облачности и скорости ветра. Ночью, в пасмурную погоду, а также при ветре 12 м/с и более поправка равна нулю.
P - Атмосферное давление - приведенное к уровню моря атмосферное давление.
Po - Атмосферное давление - измеренное на уровне метеостанции атмосферное давление.
Tmin - Минимальная температура - минимум температуры воздуха на высоте 2 м над землей.
Tmax - Максимальная температура - максимум температуры воздуха на высоте 2 м над землей.
R - Количество осадков - Количество выпавших осадков за период времени, мм. При наведении курсора мыши на число - период времени, за который выпало указанное количество осадков.
R24 - Количество осадков - Количество выпавших осадков за 24 часа, мм.
S - Снежный покров - Высота снежного покрова, см. При наведении курсора мыши на число - состояние снежного покрова и степень покрытия местности в баллах.